Tracking 19572 objects as of 24-Feb-2019
HD Live streaming from Space Station
objects crossing your sky now

RADUGA 1-7

Track RADUGA 1-7 now!
RADUGA 1-7 is classified as:


NORAD ID: 28194
Int'l Code: 2004-010A
Perigee: 35,748.3 km
Apogee: 35,789.3 km
Inclination: 10.5 °
Period: 1,434.8 minutes
Semi major axis: 42139 km
RCS: 12.5893 m2 (large)
Launch date: March 27, 2004
Source: Commonwealth of Independent States (former USSR) (CIS)
Launch site: TYURATAM MISSILE AND SPACE COMPLEX (TTMTR)

Military communication.
aabbcc
Your satellite tracking list
Your tracking list is empty




NASA's NSSDC Master Catalog

Two Line Element Set (TLE):
1 28194U 04010A   19054.90290235 -.00000359 +00000-0 +00000-0 0  9996
2 28194 010.5341 040.7793 0004860 262.0139 278.5067 01.00360760054637
Source of the keplerian elements: AFSPC